Hourly Data Report for December 22, 2018

TORONTO CITY
ONTARIO
Current Station Operator: ECCC - MSC

43°40'00.000" N
79°24'00.000" W
112.50 m
6158355
71508
XTO

Download Data

Hourly Data (December 2018)
Hourly Data Report for December 22, 2018
TIME
LST
Temp Definition
°C
Dew Point Definition
°C
Rel Hum Definition
%
Precip. Amount Definition
mm

Wind Dir Definition
10's deg

Wind Spd Definition
km/h
Visibility Definition
km
Stn Press Definition
kPa
Hmdx Definition


Wind Chill Definition


Weather Definition


00:00 0.2 -3.9 74 0.0 LegendMM LegendMM   98.08     LegendNANA
01:00 -0.1 -4.4 73 0.0 LegendMM LegendMM   98.15     LegendNANA
02:00 -0.5 -4.4 75 0.0 LegendMM LegendMM   98.24     LegendNANA
03:00 -0.9 -5.0 74 0.0 LegendMM LegendMM   98.36     LegendNANA
04:00 -0.8 -4.9 74 0.0 LegendMM LegendMM   98.48     LegendNANA
05:00 -0.9 -5.2 73 0.0 LegendMM LegendMM   98.60     LegendNANA
06:00 -1.1 -5.8 71 0.0 LegendMM LegendMM   98.74     LegendNANA
07:00 -1.2 -5.8 71 0.0 LegendMM LegendMM   98.85     LegendNANA
08:00 -1.3 -5.7 72 0.0 LegendMM LegendMM   98.98     LegendNANA
09:00 -1.0 -5.4 72 0.0 LegendMM LegendMM   99.15     LegendNANA
10:00 -0.9 -5.3 72 0.0 LegendMM LegendMM   99.29     LegendNANA
11:00 -0.6 -5.5 69 0.0 LegendMM LegendMM   99.38     LegendNANA
12:00 -0.1 -6.0 64 0.0 LegendMM LegendMM   99.43     LegendNANA
13:00 0.2 -5.0 68 0.0 LegendMM LegendMM   99.45     LegendNANA
14:00 0.4 -4.3 71 0.0 LegendMM LegendMM   99.55     LegendNANA
15:00 0.5 -5.1 66 0.0 LegendMM LegendMM   99.68     LegendNANA
16:00 0.0 -5.5 67 0.0 LegendMM LegendMM   99.81     LegendNANA
17:00 -0.3 -6.1 65 0.0 LegendMM LegendMM   99.93     LegendNANA
18:00 -0.8 -6.8 64 0.0 LegendMM LegendMM   100.02     LegendNANA
19:00 -0.8 -6.4 66 0.0 LegendMM LegendMM   100.13     LegendNANA
20:00 -0.8 -6.4 66 0.0 LegendMM LegendMM   100.21     LegendNANA
21:00 -0.9 -6.3 67 0.0 LegendMM LegendMM   100.28     LegendNANA
22:00 -0.8 -6.7 64 0.0 LegendMM LegendMM   100.34     LegendNANA
23:00 -0.7 -6.5 65 0.0 LegendMM LegendMM   100.37     LegendNANA

Notes on Data Quality.

Legend

  • E = Estimated
  • M = Missing
  • NA = Not Available*
  • [empty] = Indicates an unobserved value
Date modified: